STARLINK-1135 (45049 NORAD) Tracking and Keplerian Element Data

This shows tracking and keplerian element data for the satellite.

Feedback or suggestion? Click here.




ElementValue
Catalog45049
NameSTARLINK-1135
Epoch Orbit401
Epoch Day52.91667824
Epoch Year2020
RAAN121.0622
Inclination52.997
Eccentricity0.0001291
Argument of Perigee70.0208
Mean Anonmoly355.5968
Mean Motion15.48442187
Decay Rate0.00076902
L11 45049U 20006F 20052.91667824 .00076902 00000-0 14194-2 0 9997
L22 45049 52.9970 121.0622 0001291 70.0208 355.5968 15.48442187 4010

Live tracking and technical data element details for STARLINK-1135 (NORAD 45049). STARLINK-1135 can be tracked NOW for your location showing map with azimuth and elevation plus other details from your city location.

Track the satellite on the map from your city or location and see movement details for azimuth, elevation, latitude, longitude, range, height, and movement on the map or in text.







IsCatalogInMostPopularTable: catalog: 45049, numindb: 7
Update: records affected: 1



GetName: 45049 STARLINK-1135

Hit Count: updated at: Mon, 24 Feb 2020 17:40:21 GMT